Simultaneous Nadir Overpasses (SNOs) Predictions

Prediction of SNOs between NOAA-21 and METOP-C Satellite Orbit:

Table of predicted SNOs for the next 14.0 days since TLE Epoch: 2/7/2024
Index Date (NOAA-21) Time (NOAA-21) Lat,Lon (NOAA-21) SZA (NOAA-21 ) Date (METOP-C) Time (METOP-C) Lat,Lon (METOP-C) SZA (METOP-C ) Distance(km) Time Diff (sec)
1 02/21/2024 00:49:03 73.45, 157.67 84.61 02/21/2024 00:50:09 73.41, 160.59 84.39 92.46 66
2 02/21/2024 01:39:46 -73.39, -34.88 95.47 02/21/2024 01:40:53 -73.35, -32.23 95.68 84.57 67
3 02/21/2024 02:30:27 73.16, 132.95 84.26 02/21/2024 02:31:37 73.09, 134.52 84.08 51.52 70



Historial Predications of SNOs between NOAA-21 and METOP-C
